KLM42N EGPF-EHAM

Flight info

Callsign KLM42N
Flight time 1h 9m
Altitude 37000
Route NORBO Y96 HAVEN DCT ERKIT N110 DOLAS L603 LAMSO
Aircraft B739/M-SDE2E3FGHIRWXY/LB1

Departure

Time 2026-05-07 12:04
Airport Glasgow Airport (EGPF)

Arrival

Time 2026-05-07 13:14
Airport Amsterdam Airport Schiphol (EHAM)
Time Latitude Longitude Altitude Speed Heading
2026-05-07 11:31 55.86517 -4.43675 28 ft 0 kts 254°
2026-05-07 11:52 55.86522 -4.43638 28 ft 4 kts 260°
2026-05-07 11:53 55.86525 -4.43591 28 ft 4 kts 271°
2026-05-07 11:53 55.86521 -4.43544 28 ft 4 kts 292°
2026-05-07 11:53 55.86508 -4.43510 28 ft 3 kts 340°
2026-05-07 11:53 55.86505 -4.43508 28 ft 0 kts 344°
2026-05-07 11:56 55.86507 -4.43509 28 ft 2 kts 344°
2026-05-07 11:56 55.86542 -4.43527 28 ft 9 kts 343°
2026-05-07 11:57 55.86623 -4.43569 28 ft 13 kts 344°
2026-05-07 11:57 55.86721 -4.43616 28 ft 13 kts 354°
2026-05-07 11:57 55.86777 -4.43464 28 ft 16 kts 74°
2026-05-07 11:57 55.86813 -4.43239 28 ft 18 kts 72°
2026-05-07 11:58 55.86851 -4.43018 28 ft 13 kts 71°
2026-05-07 11:58 55.86921 -4.42919 28 ft 13 kts 27°
2026-05-07 11:58 55.87002 -4.42850 28 ft 14 kts 20°
2026-05-07 11:58 55.87108 -4.42781 28 ft 19 kts 20°
2026-05-07 11:59 55.87246 -4.42685 28 ft 22 kts 20°
2026-05-07 11:59 55.87379 -4.42596 28 ft 20 kts 29°
2026-05-07 11:59 55.87477 -4.42427 28 ft 19 kts 46°
2026-05-07 11:59 55.87568 -4.42258 28 ft 19 kts 46°
2026-05-07 12:00 55.87655 -4.42095 28 ft 18 kts 46°
2026-05-07 12:00 55.87740 -4.41937 28 ft 17 kts 46°
2026-05-07 12:00 55.87833 -4.41850 28 ft 7 kts
2026-05-07 12:00 55.87845 -4.41850 28 ft 0 kts 357°
2026-05-07 12:01 55.87847 -4.41850 28 ft 3 kts 357°
2026-05-07 12:01 55.87893 -4.41867 28 ft 8 kts 333°
2026-05-07 12:02 55.87918 -4.41946 28 ft 7 kts 254°
2026-05-07 12:02 55.87892 -4.42024 28 ft 7 kts 234°
2026-05-07 12:02 55.87883 -4.42043 28 ft 0 kts 227°
2026-05-07 12:04 55.87792 -4.42214 28 ft 52 kts 226°
2026-05-07 12:04 55.87383 -4.42975 28 ft 116 kts 226°
2026-05-07 12:04 55.86723 -4.44221 97 ft 158 kts 227°
2026-05-07 12:04 55.85970 -4.45663 753 ft 161 kts 223°
2026-05-07 12:05 55.85205 -4.47122 1556 ft 157 kts 223°
2026-05-07 12:05 55.84442 -4.48523 2230 ft 163 kts 224°
2026-05-07 12:05 55.83638 -4.50079 2623 ft 181 kts 225°
2026-05-07 12:05 55.82729 -4.51842 2835 ft 205 kts 226°
2026-05-07 12:06 55.81718 -4.53709 3247 ft 213 kts 224°
2026-05-07 12:06 55.80633 -4.55564 3776 ft 218 kts 223°
2026-05-07 12:06 55.79491 -4.57510 4087 ft 235 kts 223°
2026-05-07 12:06 55.78295 -4.59549 4790 ft 240 kts 223°
2026-05-07 12:07 55.77086 -4.61613 5549 ft 243 kts 223°
2026-05-07 12:07 55.75862 -4.63699 6290 ft 245 kts 223°
2026-05-07 12:07 55.74628 -4.65801 7102 ft 246 kts 223°
2026-05-07 12:07 55.73383 -4.67917 7841 ft 250 kts 223°
2026-05-07 12:08 55.72115 -4.70072 8554 ft 254 kts 223°
2026-05-07 12:08 55.70832 -4.72250 9298 ft 257 kts 223°
2026-05-07 12:08 55.69470 -4.74329 10023 ft 261 kts 211°
2026-05-07 12:08 55.67749 -4.75575 10357 ft 280 kts 194°
2026-05-07 12:09 55.65735 -4.75944 10533 ft 303 kts 184°
2026-05-07 12:09 55.63574 -4.75420 10720 ft 328 kts 163°
2026-05-07 12:09 55.61530 -4.73419 11211 ft 343 kts 145°
2026-05-07 12:09 55.59943 -4.70271 11838 ft 356 kts 125°
2026-05-07 12:10 55.58949 -4.66225 12514 ft 367 kts 106°
2026-05-07 12:10 55.58555 -4.61665 13193 ft 374 kts 100°
2026-05-07 12:10 55.58268 -4.57125 13856 ft 379 kts 99°
2026-05-07 12:10 55.57995 -4.52455 14478 ft 383 kts 99°
2026-05-07 12:11 55.57719 -4.47753 15150 ft 386 kts 99°
2026-05-07 12:11 55.57432 -4.43021 15808 ft 389 kts 99°
2026-05-07 12:11 55.57132 -4.38243 16465 ft 393 kts 99°
2026-05-07 12:11 55.56821 -4.33431 17111 ft 397 kts 99°
2026-05-07 12:12 55.56499 -4.28555 17723 ft 401 kts 99°
2026-05-07 12:12 55.56170 -4.23637 18332 ft 405 kts 99°
2026-05-07 12:12 55.55836 -4.18678 18917 ft 408 kts 99°
2026-05-07 12:12 55.55497 -4.13689 19495 ft 410 kts 99°
2026-05-07 12:13 55.55153 -4.08660 20079 ft 413 kts 99°
2026-05-07 12:13 55.54806 -4.03613 20679 ft 415 kts 100°
2026-05-07 12:13 55.54455 -3.98538 21240 ft 418 kts 100°
2026-05-07 12:13 55.54099 -3.93434 21797 ft 421 kts 100°
2026-05-07 12:14 55.53738 -3.88285 22346 ft 423 kts 100°
2026-05-07 12:14 55.53377 -3.83172 22857 ft 427 kts 100°
2026-05-07 12:14 55.53002 -3.77885 23399 ft 430 kts 100°
2026-05-07 12:14 55.52628 -3.72637 23897 ft 432 kts 100°
2026-05-07 12:15 55.52249 -3.67360 24327 ft 435 kts 100°
2026-05-07 12:15 55.51869 -3.62102 24748 ft 439 kts 100°
2026-05-07 12:15 55.51479 -3.56739 25173 ft 442 kts 100°
2026-05-07 12:15 55.51086 -3.51351 25579 ft 445 kts 100°
2026-05-07 12:16 55.50686 -3.45905 25992 ft 448 kts 100°
2026-05-07 12:16 55.50283 -3.40444 26402 ft 450 kts 100°
2026-05-07 12:16 55.49872 -3.34940 26789 ft 454 kts 100°
2026-05-07 12:16 55.49376 -3.29434 27150 ft 456 kts 103°
2026-05-07 12:17 55.48767 -3.23949 27519 ft 458 kts 104°
2026-05-07 12:17 55.48133 -3.18419 27866 ft 462 kts 104°
2026-05-07 12:17 55.47517 -3.12845 28313 ft 462 kts 103°
2026-05-07 12:17 55.46905 -3.07282 28712 ft 464 kts 105°
2026-05-07 12:18 55.45876 -3.01900 28994 ft 463 kts 118°
2026-05-07 12:18 55.44224 -2.97054 29328 ft 461 kts 130°
2026-05-07 12:18 55.42079 -2.92890 29686 ft 459 kts 141°
2026-05-07 12:18 55.39691 -2.89155 30088 ft 459 kts 141°
2026-05-07 12:19 55.37293 -2.85462 30509 ft 457 kts 141°
2026-05-07 12:19 55.34910 -2.81794 31009 ft 454 kts 141°
2026-05-07 12:19 55.32581 -2.78188 31521 ft 450 kts 141°
2026-05-07 12:19 55.30213 -2.74504 31953 ft 449 kts 141°
2026-05-07 12:20 55.27913 -2.70911 32273 ft 450 kts 141°
2026-05-07 12:20 55.25575 -2.67255 32627 ft 449 kts 141°
2026-05-07 12:20 55.23254 -2.63620 33073 ft 446 kts 140°
2026-05-07 12:20 55.20954 -2.60021 33604 ft 441 kts 140°
2026-05-07 12:21 55.18672 -2.56456 34066 ft 438 kts 140°
2026-05-07 12:21 55.16397 -2.52908 34344 ft 438 kts 140°
2026-05-07 12:21 55.14112 -2.49353 34509 ft 441 kts 141°
2026-05-07 12:21 55.11810 -2.45780 34718 ft 442 kts 141°
2026-05-07 12:22 55.09511 -2.42216 35012 ft 442 kts 141°
2026-05-07 12:22 55.07216 -2.38662 35288 ft 441 kts 141°
2026-05-07 12:22 55.04917 -2.35107 35498 ft 442 kts 141°
2026-05-07 12:22 55.02613 -2.31551 35709 ft 443 kts 141°
2026-05-07 12:23 55.00300 -2.27987 35949 ft 443 kts 141°
2026-05-07 12:23 54.97987 -2.24428 36174 ft 444 kts 141°
2026-05-07 12:23 54.95673 -2.20875 36418 ft 443 kts 141°
2026-05-07 12:23 54.93357 -2.17322 36643 ft 443 kts 141°
2026-05-07 12:24 54.91043 -2.13780 36824 ft 445 kts 141°
2026-05-07 12:24 54.88712 -2.10216 36958 ft 446 kts 141°
2026-05-07 12:24 54.86380 -2.06657 36997 ft 446 kts 141°
2026-05-07 12:25 54.81721 -1.99562 37010 ft 445 kts 141°
2026-05-07 12:25 54.77072 -1.92506 37018 ft 444 kts 141°
2026-05-07 12:26 54.72427 -1.85479 37021 ft 443 kts 141°
2026-05-07 12:26 54.67816 -1.78523 37031 ft 442 kts 141°
2026-05-07 12:27 54.63178 -1.71541 37037 ft 442 kts 141°
2026-05-07 12:27 54.58534 -1.64587 37049 ft 442 kts 141°
2026-05-07 12:28 54.53872 -1.57625 37046 ft 443 kts 141°
2026-05-07 12:28 54.49212 -1.50686 37046 ft 443 kts 141°
2026-05-07 12:29 54.44549 -1.43762 37046 ft 443 kts 141°
2026-05-07 12:29 54.39873 -1.36841 37055 ft 443 kts 141°
2026-05-07 12:30 54.35197 -1.29942 37047 ft 444 kts 141°
2026-05-07 12:30 54.30512 -1.23051 37073 ft 444 kts 141°
2026-05-07 12:31 54.26613 -1.17331 37079 ft 444 kts 141°
2026-05-07 12:31 54.21928 -1.10481 37068 ft 443 kts 141°
2026-05-07 12:32 54.17234 -1.03635 37069 ft 443 kts 141°
2026-05-07 12:32 54.12571 -0.96855 37062 ft 443 kts 141°
2026-05-07 12:33 54.05530 -0.86655 37070 ft 443 kts 141°
2026-05-07 12:33 54.00735 -0.80096 37066 ft 442 kts 146°
2026-05-07 12:34 53.95653 -0.74200 37069 ft 442 kts 147°
2026-05-07 12:34 53.90552 -0.68359 37070 ft 442 kts 146°
2026-05-07 12:35 53.85470 -0.62465 37074 ft 443 kts 146°
2026-05-07 12:35 53.80399 -0.56554 37075 ft 443 kts 146°
2026-05-07 12:36 53.75314 -0.50641 37075 ft 443 kts 146°
2026-05-07 12:36 53.70229 -0.44751 37078 ft 443 kts 146°
2026-05-07 12:37 53.65123 -0.38888 37076 ft 444 kts 146°
2026-05-07 12:37 53.60022 -0.33050 37076 ft 443 kts 145°
2026-05-07 12:38 53.55584 -0.25987 37074 ft 444 kts 128°
2026-05-07 12:38 53.51905 -0.17660 37073 ft 443 kts 127°
2026-05-07 12:39 53.48228 -0.09327 37077 ft 443 kts 127°
2026-05-07 12:39 53.44522 -0.01058 37082 ft 443 kts 128°
2026-05-07 12:40 53.40794 0.07187 37060 ft 444 kts 128°
2026-05-07 12:40 53.37060 0.15415 37065 ft 443 kts 128°
2026-05-07 12:41 53.33326 0.23618 37064 ft 443 kts 128°
2026-05-07 12:41 53.29593 0.31798 37065 ft 442 kts 128°
2026-05-07 12:42 53.25875 0.39920 37075 ft 442 kts 128°
2026-05-07 12:42 53.22133 0.48054 37080 ft 442 kts 128°
2026-05-07 12:43 53.18385 0.56164 37075 ft 442 kts 128°
2026-05-07 12:43 53.14629 0.64273 37087 ft 442 kts 128°
2026-05-07 12:44 53.10864 0.72378 37086 ft 442 kts 128°
2026-05-07 12:44 53.07095 0.80469 37080 ft 443 kts 128°
2026-05-07 12:45 53.03310 0.88569 37086 ft 443 kts 128°
2026-05-07 12:45 52.99583 0.96734 37075 ft 444 kts 122°
2026-05-07 12:46 52.97125 1.06109 37088 ft 445 kts 104°
2026-05-07 12:46 52.95942 1.16118 37094 ft 446 kts 101°
2026-05-07 12:47 52.94827 1.26252 37091 ft 447 kts 101°
2026-05-07 12:47 52.93671 1.36367 37097 ft 447 kts 102°
2026-05-07 12:48 52.92478 1.46493 37104 ft 447 kts 102°
2026-05-07 12:48 52.91272 1.56595 37092 ft 447 kts 102°
2026-05-07 12:49 52.90058 1.66690 37112 ft 447 kts 102°
2026-05-07 12:49 52.89445 1.71762 36603 ft 455 kts 102°
2026-05-07 12:49 52.88821 1.76910 36008 ft 453 kts 102°
2026-05-07 12:50 52.88200 1.82010 35268 ft 452 kts 101°
2026-05-07 12:50 52.87583 1.87071 34778 ft 444 kts 101°
2026-05-07 12:50 52.86973 1.92051 34036 ft 442 kts 101°
2026-05-07 12:50 52.86362 1.97024 33348 ft 438 kts 101°
2026-05-07 12:51 52.85760 2.01886 32671 ft 434 kts 101°
2026-05-07 12:51 52.85150 2.06798 32122 ft 428 kts 101°
2026-05-07 12:51 52.84556 2.11572 31600 ft 422 kts 101°
2026-05-07 12:51 52.83972 2.16245 31052 ft 417 kts 101°
2026-05-07 12:52 52.83386 2.20919 30529 ft 412 kts 101°
2026-05-07 12:52 52.82798 2.25596 29980 ft 408 kts 101°
2026-05-07 12:52 52.82228 2.30112 29436 ft 403 kts 101°
2026-05-07 12:52 52.81660 2.34605 28917 ft 398 kts 101°
2026-05-07 12:53 52.81096 2.39056 28411 ft 392 kts 101°
2026-05-07 12:53 52.80537 2.43452 27911 ft 388 kts 102°
2026-05-07 12:53 52.79982 2.47796 27404 ft 386 kts 102°
2026-05-07 12:53 52.79426 2.52130 26942 ft 385 kts 102°
2026-05-07 12:54 52.78863 2.56490 26489 ft 390 kts 102°
2026-05-07 12:54 52.78294 2.60878 25972 ft 390 kts 102°
2026-05-07 12:54 52.77728 2.65227 25470 ft 386 kts 102°
2026-05-07 12:54 52.77167 2.69548 24968 ft 383 kts 102°
2026-05-07 12:55 52.76609 2.73834 24488 ft 381 kts 102°
2026-05-07 12:55 52.76050 2.78104 24001 ft 379 kts 103°
2026-05-07 12:55 52.75496 2.82339 23410 ft 378 kts 103°
2026-05-07 12:55 52.74950 2.86591 22817 ft 377 kts 103°
2026-05-07 12:56 52.74410 2.90806 22301 ft 374 kts 102°
2026-05-07 12:56 52.73872 2.94990 21821 ft 371 kts 103°
2026-05-07 12:56 52.73304 2.99130 21332 ft 367 kts 108°
2026-05-07 12:56 52.72214 3.02889 20847 ft 363 kts 121°
2026-05-07 12:57 52.70941 3.06411 20389 ft 361 kts 121°
2026-05-07 12:57 52.69658 3.09956 19911 ft 359 kts 121°
2026-05-07 12:57 52.68393 3.13479 19452 ft 357 kts 121°
2026-05-07 12:57 52.67140 3.17003 19002 ft 356 kts 121°
2026-05-07 12:58 52.65891 3.20534 18536 ft 356 kts 121°
2026-05-07 12:58 52.64644 3.24066 18041 ft 356 kts 121°
2026-05-07 12:58 52.63405 3.27582 17534 ft 354 kts 121°
2026-05-07 12:58 52.62184 3.31043 17230 ft 344 kts 121°
2026-05-07 12:59 52.60975 3.34466 16628 ft 347 kts 121°
2026-05-07 12:59 52.59761 3.37893 16182 ft 346 kts 121°
2026-05-07 12:59 52.58595 3.41352 15709 ft 345 kts 113°
2026-05-07 12:59 52.58017 3.45145 15261 ft 342 kts 99°
2026-05-07 13:00 52.57640 3.49003 14808 ft 341 kts 99°
2026-05-07 13:00 52.57260 3.52832 14370 ft 339 kts 99°
2026-05-07 13:00 52.56872 3.56651 13926 ft 338 kts 99°
2026-05-07 13:00 52.56478 3.60449 13446 ft 336 kts 100°
2026-05-07 13:01 52.56081 3.64215 12978 ft 334 kts 100°
2026-05-07 13:01 52.55686 3.67916 12530 ft 332 kts 100°
2026-05-07 13:01 52.55282 3.71676 12086 ft 329 kts 100°
2026-05-07 13:01 52.54884 3.75367 11651 ft 327 kts 100°
2026-05-07 13:02 52.54487 3.79030 11226 ft 325 kts 101°
2026-05-07 13:02 52.54091 3.82671 10803 ft 323 kts 101°
2026-05-07 13:02 52.53698 3.86282 10494 ft 317 kts 101°
2026-05-07 13:02 52.53316 3.89774 10362 ft 306 kts 101°
2026-05-07 13:03 52.52945 3.93154 10211 ft 296 kts 101°
2026-05-07 13:03 52.52491 3.96383 10073 ft 286 kts 113°
2026-05-07 13:03 52.51388 3.99009 9851 ft 277 kts 137°
2026-05-07 13:03 52.49953 4.01058 9649 ft 272 kts 141°
2026-05-07 13:04 52.48507 4.02996 9394 ft 273 kts 142°
2026-05-07 13:04 52.47022 4.04965 9142 ft 275 kts 142°
2026-05-07 13:04 52.45528 4.06930 8879 ft 274 kts 142°
2026-05-07 13:04 52.44049 4.08873 8609 ft 271 kts 142°
2026-05-07 13:05 52.42576 4.10816 8340 ft 267 kts 142°
2026-05-07 13:05 52.41158 4.12690 8080 ft 263 kts 142°
2026-05-07 13:05 52.39738 4.14560 7818 ft 261 kts 142°
2026-05-07 13:05 52.38305 4.16438 7561 ft 260 kts 142°
2026-05-07 13:06 52.36910 4.18255 7306 ft 259 kts 142°
2026-05-07 13:06 52.35506 4.20078 7069 ft 257 kts 142°
2026-05-07 13:06 52.34103 4.21897 6813 ft 256 kts 142°
2026-05-07 13:06 52.32705 4.23703 6560 ft 256 kts 142°
2026-05-07 13:07 52.31313 4.25493 6343 ft 252 kts 142°
2026-05-07 13:07 52.29944 4.27251 6078 ft 251 kts 142°
2026-05-07 13:07 52.28561 4.29015 5778 ft 254 kts 142°
2026-05-07 13:07 52.27158 4.30798 5466 ft 255 kts 142°
2026-05-07 13:08 52.25758 4.32569 5155 ft 255 kts 142°
2026-05-07 13:08 52.24359 4.34330 4849 ft 254 kts 142°
2026-05-07 13:08 52.22956 4.36087 4528 ft 253 kts 142°
2026-05-07 13:08 52.21588 4.37858 4241 ft 250 kts 134°
2026-05-07 13:09 52.20727 4.40249 4026 ft 241 kts 102°
2026-05-07 13:09 52.20510 4.42905 3840 ft 234 kts 93°
2026-05-07 13:09 52.20401 4.45519 3699 ft 227 kts 92°
2026-05-07 13:09 52.20307 4.48034 3484 ft 220 kts 92°
2026-05-07 13:10 52.20244 4.50502 3218 ft 213 kts 83°
2026-05-07 13:10 52.20789 4.52609 3027 ft 198 kts 49°
2026-05-07 13:10 52.21606 4.54360 2747 ft 191 kts 63°
2026-05-07 13:10 52.22187 4.56239 2507 ft 182 kts 58°
2026-05-07 13:11 52.22863 4.57949 2258 ft 176 kts 57°
2026-05-07 13:11 52.23509 4.59607 2022 ft 170 kts 57°
2026-05-07 13:11 52.24129 4.61222 1779 ft 166 kts 57°
2026-05-07 13:11 52.24721 4.62770 1549 ft 157 kts 56°
2026-05-07 13:12 52.25291 4.64265 1385 ft 156 kts 56°
2026-05-07 13:12 52.25854 4.65733 1166 ft 154 kts 55°
2026-05-07 13:12 52.26424 4.67223 930 ft 152 kts 56°
2026-05-07 13:12 52.26967 4.68677 711 ft 151 kts 56°
2026-05-07 13:13 52.27518 4.70136 560 ft 152 kts 54°
2026-05-07 13:13 52.28087 4.71593 354 ft 152 kts 55°
2026-05-07 13:13 52.28646 4.73044 133 ft 150 kts 56°
2026-05-07 13:13 52.29191 4.74460 1 ft 141 kts 56°
2026-05-07 13:14 52.29611 4.75537 -2 ft 82 kts 57°
2026-05-07 13:14 52.29805 4.76048 -5 ft 32 kts 58°
2026-05-07 13:14 52.29919 4.76348 -5 ft 30 kts 58°
2026-05-07 13:14 52.30054 4.76562 -3 ft 24 kts 29°
2026-05-07 13:15 52.30156 4.76654 -2 ft 13 kts 27°
2026-05-07 13:15 52.30236 4.76719 -2 ft 13 kts 27°
2026-05-07 13:15 52.30303 4.76805 -2 ft 12 kts 54°
2026-05-07 13:15 52.30349 4.76921 -2 ft 12 kts 57°
2026-05-07 13:16 52.30393 4.77033 -2 ft 12 kts 57°
2026-05-07 13:16 52.30434 4.77143 -2 ft 11 kts 59°
2026-05-07 13:16 52.30476 4.77250 -2 ft 11 kts 57°
2026-05-07 13:16 52.30507 4.77328 -2 ft 13 kts 58°
2026-05-07 13:17 52.30583 4.77521 -2 ft 16 kts 50°
2026-05-07 13:17 52.30644 4.77583 -2 ft 14 kts 13°
2026-05-07 13:17 52.30788 4.77600 -2 ft 17 kts
2026-05-07 13:17 52.30832 4.77508 -2 ft 11 kts 276°
2026-05-07 13:18 52.30837 4.77413 -2 ft 12 kts 272°
2026-05-07 13:18 52.30855 4.77366 -2 ft 6 kts 344°
2026-05-07 13:18 52.30881 4.77365 -2 ft 3 kts
2026-05-07 13:18 52.30895 4.77367 -2 ft 0 kts